Tracking 30510 objects as of 22-May-2025
HD Live streaming from Space Station
objects crossing your sky now

ARKTIKA-M 2

Track ARKTIKA-M 2 now!


NORAD ID: 58584
Int'l Code: 2023-198A
Perigee: 1,926.8 km
Apogee: 38,443.6 km
Inclination: 63.2 °
Period: 717.8 minutes
Semi major axis: 26556 km
RCS: Unknown
Launch date: December 16, 2023
Source: Commonwealth of Independent States (former USSR) (CIS)
Launch site: TYURATAM MISSILE AND SPACE COMPLEX (TTMTR)
Your satellite tracking list
Your tracking list is empty




NASA's NSSDC Master Catalog

Two Line Element Set (TLE):
1 58584U 23198A   25142.44806249  .00000228  00000-0  00000+0 0  9995
2 58584  63.2285 197.1880 6875393 268.9176  18.4476  2.00610970 10479
Source of the keplerian elements: AFSPC